Weather History for Limnos, Greece

Change the Weather History Date:

Thursday, November 15, 2012

  Actual Average Record
Temperature  
Mean Temperature 56 °F -  
Max Temperature 59 °F 57 °F 73 °F (2004)
Min Temperature 54 °F 46 °F 37 °F (2006)
Degree Days  
Heating Degree Days 8    
Growing Degree Days 6 (Base 50)    
Moisture  
Dew Point 49 °F    
Average Humidity 78    
Maximum Humidity 88    
Minimum Humidity 62    
Precipitation  
Precipitation 0.00 in 0.10 in - ()
Sea Level Pressure  
Sea Level Pressure 30.19 in    
Wind  
Wind Speed 19 mph ()    
Max Wind Speed 23 mph    
Max Gust Speed 34 mph    
Visibility 6.2 miles    
Events Rain    
Averages and records for this station are not official NWS values.
T = Trace of Precipitation, MM = Missing Value Source: Averaged Metar Reports

Daily Weather History Graph

Daily Weather History Graph

Search for Another Location

Airport:

Trip Planner

Search our weather history database for the weather conditions in past years. The results will help you decide how hot, cold, wet, or windy it might be!

Date:

Astronomy

Nov. 15, 2012 Rise Set
Actual Time 7:04 AM EET 5:02 PM EET
Civil Twilight 6:35 AM EET 5:31 PM EET
Nautical Twilight 6:02 AM EET 6:04 PM EET
Astronomical Twilight 5:30 AM EET 6:36 PM EET
Moon 8:39 AM EET (11/15) 6:33 PM EET (11/15)
Length of Visible Light 10h 56m
Length of Day
9h 58m
Waxing Crescent, 3% of the Moon is Illuminated
Nov 15
Waxing Crescent
Nov 20
First Quarter
Nov 28
Full
Dec 6
Last Quarter
Dec 13
New

Hourly Weather History & Observations

Time (EET) Temp. Dew Point Humidity Pressure Visibility Wind Dir Wind Speed Gust Speed Precip Events Conditions
12:20 AM 53.6 °F 48.2 °F 82% 30.24 in - NNE 21.9 mph - N/A Rain Light Rain
12:50 AM 53.6 °F 48.2 °F 82% 30.24 in - NNE 20.7 mph - N/A   Unknown
1:20 AM 53.6 °F 48.2 °F 82% 30.24 in - NE 20.7 mph - N/A Rain Light Rain
1:50 AM 55.4 °F 48.2 °F 77% 30.24 in 6.2 mi NNE 19.6 mph 31.1 mph N/A   Scattered Clouds
2:00 AM 55 °F 48 °F 70% 30.25 in 6 mi NNE 19.6 mph - -   Partly Cloudy
2:20 AM 55.4 °F 48.2 °F 77% 30.24 in - NNE 20.7 mph - N/A   Unknown
2:50 AM 55.4 °F 48.2 °F 77% 30.24 in - NNE 19.6 mph - N/A   Unknown
3:20 AM 55.4 °F 48.2 °F 77% 30.24 in - NNE 20.7 mph - N/A   Unknown
3:50 AM 53.6 °F 48.2 °F 82% 30.21 in - NE 20.7 mph 32.2 mph N/A   Unknown
4:20 AM 53.6 °F 48.2 °F 82% 30.21 in - NE 21.9 mph - N/A Rain Light Rain
4:50 AM 55.4 °F 48.2 °F 77% 30.21 in 6.2 mi NE 20.7 mph 32.2 mph N/A   Scattered Clouds
5:20 AM 55.4 °F 48.2 °F 77% 30.21 in 6.2 mi NE 19.6 mph 31.1 mph N/A   Mostly Cloudy
5:50 AM 55.4 °F 48.2 °F 77% 30.21 in 6.2 mi NNE 18.4 mph 29.9 mph N/A   Mostly Cloudy
6:20 AM 53.6 °F 48.2 °F 82% 30.21 in 6.2 mi NE 19.6 mph 31.1 mph N/A   Scattered Clouds
6:50 AM 53.6 °F 48.2 °F 82% 30.21 in 6.2 mi NE 18.4 mph 29.9 mph N/A   Scattered Clouds
7:20 AM 53.6 °F 48.2 °F 82% 30.21 in 6.2 mi NE 19.6 mph 31.1 mph N/A   Scattered Clouds
7:50 AM 55.4 °F 48.2 °F 77% 30.24 in 6.2 mi NE 20.7 mph 32.2 mph N/A   Scattered Clouds
8:00 AM 55 °F 49 °F 72% 30.25 in 6 mi NE 20.7 mph - -   Mostly Cloudy
8:20 AM 55.4 °F 48.2 °F 77% 30.24 in 6.2 mi NNE 20.7 mph 32.2 mph N/A   Scattered Clouds
8:50 AM 57.2 °F 48.2 °F 72% 30.24 in 6.2 mi NE 20.7 mph 34.5 mph N/A   Scattered Clouds
9:20 AM 57.2 °F 48.2 °F 72% 30.21 in 6.2 mi NE 20.7 mph 32.2 mph N/A   Scattered Clouds
9:50 AM 57.2 °F 48.2 °F 72% 30.24 in 6.2 mi NE 20.7 mph - N/A   Mostly Cloudy
10:20 AM 57.2 °F 50.0 °F 77% 30.21 in 6.2 mi NE 23.0 mph - N/A   Mostly Cloudy
10:50 AM 57.2 °F 50.0 °F 77% 30.21 in 6.2 mi NE 21.9 mph 33.4 mph N/A   Mostly Cloudy
11:20 AM 59.0 °F 50.0 °F 72% 30.21 in 6.2 mi NE 20.7 mph 32.2 mph N/A   Mostly Cloudy
11:50 AM 59.0 °F 50.0 °F 72% 30.21 in 6.2 mi NE 21.9 mph 33.4 mph N/A   Mostly Cloudy
12:20 PM 59.0 °F 48.2 °F 67% 30.21 in 6.2 mi NE 20.7 mph 32.2 mph N/A   Mostly Cloudy
12:50 PM 59.0 °F 50.0 °F 72% 30.18 in 6.2 mi NE 20.7 mph 32.2 mph N/A   Mostly Cloudy
1:20 PM 59.0 °F 50.0 °F 72% 30.18 in 6.2 mi NE 21.9 mph 33.4 mph N/A   Scattered Clouds
1:50 PM 59.0 °F 50.0 °F 72% 30.15 in 6.2 mi NE 21.9 mph 33.4 mph N/A   Scattered Clouds
2:00 PM 59 °F 49 °F 62% 30.18 in 6 mi NE 21.9 mph - -   Partly Cloudy
2:20 PM 59.0 °F 50.0 °F 72% 30.15 in 6.2 mi NE 20.7 mph 32.2 mph N/A   Scattered Clouds
2:50 PM 59.0 °F 50.0 °F 72% 30.15 in 6.2 mi NE 21.9 mph 33.4 mph N/A   Scattered Clouds
3:20 PM 59.0 °F 50.0 °F 72% 30.15 in 6.2 mi NE 21.9 mph 33.4 mph N/A   Scattered Clouds
3:50 PM 57.2 °F 50.0 °F 77% 30.15 in 6.2 mi NE 20.7 mph 32.2 mph N/A   Scattered Clouds
4:20 PM 57.2 °F 50.0 °F 77% 30.15 in 6.2 mi NE 20.7 mph 32.2 mph N/A   Scattered Clouds
4:50 PM 57.2 °F 50.0 °F 77% 30.15 in 6.2 mi NE 20.7 mph - N/A   Scattered Clouds
5:20 PM 55.4 °F 50.0 °F 82% 30.15 in 6.2 mi NE 20.7 mph 32.2 mph N/A   Scattered Clouds
5:50 PM 55.4 °F 50.0 °F 82% 30.15 in 6.2 mi NE 18.4 mph 29.9 mph N/A   Mostly Cloudy
6:20 PM 55.4 °F 50.0 °F 82% 30.15 in 6.2 mi NE 19.6 mph - N/A   Mostly Cloudy
6:50 PM 55.4 °F 50.0 °F 82% 30.15 in 6.2 mi NE 18.4 mph 29.9 mph N/A   Mostly Cloudy
7:20 PM 55.4 °F 50.0 °F 82% 30.15 in 6.2 mi NE 19.6 mph 31.1 mph N/A   Scattered Clouds
7:50 PM 55.4 °F 50.0 °F 82% 30.15 in 6.2 mi ENE 18.4 mph 31.1 mph N/A   Scattered Clouds
8:00 PM 55 °F 49 °F 75% 30.17 in 6 mi ENE 18.4 mph - -   Partly Cloudy
8:20 PM 55.4 °F 50.0 °F 82% 30.15 in - NE 18.4 mph - N/A   Unknown
8:50 PM 55.4 °F 50.0 °F 82% 30.15 in - NE 18.4 mph - N/A   Unknown
9:20 PM 55.4 °F 50.0 °F 82% 30.15 in - ENE 18.4 mph - N/A   Unknown
9:50 PM 55.4 °F 50.0 °F 82% 30.15 in - ENE 19.6 mph - N/A Rain Light Rain
10:20 PM 55.4 °F 50.0 °F 82% 30.15 in - NE 17.3 mph - N/A   Unknown
10:50 PM 55.4 °F 51.8 °F 88% 30.15 in 6.2 mi NE 17.3 mph - N/A   Scattered Clouds
11:20 PM 55.4 °F 51.8 °F 88% 30.15 in - ENE 17.3 mph - N/A Rain Light Rain
11:50 PM 55.4 °F 50.0 °F 82% 30.15 in - NE 16.1 mph - N/A Rain Light Rain